Theta_e
306 309 315 316 307 306 309 311 310 311 314 315 316 315 316 315 324 320 320 322 324 325 325 325 328 330 332 333 333 334 333 334 334 334 334 333 333 333 332 331 330 330 332 330 330 331 334 331 333
308 313 315 314 308 308 306 307 310 310 315 315 315 315 314 315 318 319 321 321 321 323 323 324 325 324 324 325 325 324 325 324 324 324 323 327 330 332 332 332 333 331 330 330 331 330 329 330 332
308 314 315 309 304 307 308 309 312 314 315 315 314 313 313 313 314 316 317 321 320 319 321 319 318 315 313 312 313 311 310 309 308 307 307 307 307 307 309 315 326 331 333 331 330 330 332 333 334
311 314 311 309 311 309 307 309 311 313 314 314 314 312 312 313 314 315 316 319 318 317 318 314 312 310 308 307 307 308 308 309 309 309 308 308 307 307 307 306 306 307 319 331 332 330 331 334 334
312 311 305 307 307 309 307 309 309 310 311 313 313 311 311 313 314 314 315 315 317 317 316 311 309 308 307 307 308 308 309 309 309 308 307 306 306 306 306 306 306 306 305 307 323 332 330 331 333
309 307 305 306 306 306 305 308 307 308 309 311 312 310 311 312 313 313 313 314 314 315 315 311 308 307 308 308 309 310 309 307 306 305 305 305 305 305 305 305 305 305 305 305 305 317 331 332 329
305 301 304 305 305 306 307 307 307 307 307 308 311 310 310 311 312 311 312 312 314 314 314 311 307 308 308 309 309 308 306 305 304 304 305 305 304 304 304 304 304 304 304 304 305 304 307 322 331
308 302 307 305 306 308 306 307 307 307 307 308 309 308 309 311 310 310 311 311 312 312 312 311 308 308 309 309 308 306 304 304 304 304 304 304 304 304 303 303 304 303 303 303 303 304 305 304 314
306 302 303 306 305 307 305 306 307 307 307 307 309 309 309 309 310 310 310 310 310 310 310 311 310 309 309 308 306 304 303 303 304 303 303 302 302 302 302 302 303 303 303 303 303 303 303 303 304
304 301 304 304 305 305 305 305 305 306 305 306 307 307 308 308 309 310 310 310 309 309 309 308 309 308 307 306 304 303 303 303 303 303 302 302 302 302 302 302 302 303 303 303 303 304 304 304 303
302 302 302 306 306 306 305 305 306 305 304 306 306 306 307 307 308 309 309 309 308 308 307 307 306 306 305 304 303 302 302 303 302 302 302 302 302 302 302 302 302 302 303 303 303 302 303 304 304
305 304 305 305 306 306 305 305 305 305 306 306 306 305 305 306 307 307 308 308 308 307 306 306 305 304 304 303 302 302 302 302 302 302 302 302 302 302 302 302 302 302 302 302 302 302 302 302 303
304 305 306 306 306 306 306 305 304 306 308 306 306 306 306 305 306 306 307 307 307 306 306 305 304 303 303 302 302 301 301 301 301 301 301 301 301 301 301 301 301 301 302 301 301 300 300 300 300
305 305 305 306 306 305 304 304 304 307 308 307 306 305 305 305 305 306 306 307 307 306 305 305 304 303 303 303 302 301 300 300 300 300 300 300 300 300 300 300 300 300 300 299 299 299 299 299 299
305 304 303 305 305 304 304 304 301 308 306 306 306 305 305 305 305 305 305 306 306 306 305 304 304 304 303 303 302 301 300 300 300 299 300 300 300 300 299 299 299 298 297 298 298 298 298 298 298
304 304 306 307 303 303 304 306 305 306 305 305 306 306 306 307 306 305 305 305 305 305 304 304 304 304 303 303 302 301 300 299 299 299 299 299 299 299 298 298 297 297 297 297 297 297 297 297 297
305 307 305 306 304 303 303 305 304 305 304 304 305 304 305 305 305 306 306 305 305 305 304 304 304 303 302 302 302 301 300 299 299 298 298 298 298 298 297 297 296 296 296 296 296 296 296 297 297
308 306 306 308 304 304 303 301 301 304 302 302 301 301 302 302 303 304 305 304 304 304 304 304 303 302 302 301 300 299 299 298 298 298 298 297 297 297 296 295 295 295 295 295 296 296 297 297 298
306 306 307 305 302 304 302 301 300 300 299 299 298 299 299 299 300 301 302 302 302 303 303 302 302 301 301 300 299 298 297 297 297 297 297 296 296 296 295 294 294 295 295 296 296 296 296 296 297
305 305 305 303 302 303 302 302 301 299 298 298 298 298 299 299 299 300 301 301 301 301 301 301 301 300 299 298 297 296 296 296 296 296 295 295 295 294 294 294 295 295 295 295 295 296 296 296 296
304 304 304 305 302 301 301 301 300 299 298 297 297 297 298 298 298 299 299 299 300 300 299 299 298 297 297 296 295 295 295 295 294 295 294 294 293 293 294 294 295 295 295 295 296 296 296 296 296
306 303 302 302 301 305 300 302 301 299 298 298 298 297 297 297 297 297 297 297 297 297 297 296 296 295 295 295 294 294 294 294 294 294 293 292 293 293 293 294 294 295 295 296 296 296 296 296 295
304 301 301 301 299 296 301 296 300 298 299 297 296 297 297 297 297 297 297 296 296 296 295 295 295 294 294 294 293 293 293 293 293 292 292 292 293 293 293 294 294 295 295 295 295 295 295 295 294
301 302 302 300 297 297 298 300 302 298 297 298 296 297 297 297 297 297 297 296 296 295 295 295 294 294 293 293 293 292 292 292 292 292 292 292 292 294 294 294 294 295 295 295 295 295 295 294 294
302 304 301 298 296 301 298 300 302 298 295 295 295 297 297 296 296 296 296 295 295 295 295 294 293 293 292 292 291 291 291 291 291 292 292 293 294 294 294 294 294 294 295 295 295 295 294 294 294
303 303 304 300 298 300 299 298 302 293 293 295 297 297 297 296 295 295 296 296 295 294 294 294 293 292 291 291 291 291 291 291 292 292 293 293 294 294 294 294 294 294 295 295 295 295 295 295 295
303 304 299 296 290 297 296 298 298 296 292 292 296 296 296 296 294 294 294 295 294 293 294 293 293 292 291 291 291 291 291 292 292 292 292 293 294 294 294 294 294 294 294 294 295 295 295 295 295
301 299 303 296 298 299 295 295 299 294 291 290 290 295 295 295 294 293 293 294 293 294 293 293 293 292 292 292 292 292 292 292 292 292 293 294 294 294 294 294 294 294 294 294 294 295 295 294 293
300 300 300 301 295 293 292 296 289 292 289 290 289 295 295 295 294 294 293 293 294 294 294 294 294 294 293 293 292 292 292 292 292 293 294 294 295 294 294 294 294 294 294 294 295 294 294 293 292
296 296 299 300 296 294 290 296 282 283 286 291 294 295 295 295 295 295 295 294 293 294 294 294 295 295 294 293 292 292 292 293 293 294 294 295 294 294 294 293 293 294 294 295 294 293 292 292 292
Wind_Speed
6 9 10 6 3 4 3 6 2 3 2 2 1 3 3 3 3 4 7 15 14 17 13 13 13 12 10 9 8 7 5 5 5 5 5 6 6 7 8 9 7 6 6 6 7 6 8 10 12
8 10 8 3 4 2 5 4 5 5 3 8 7 3 1 2 2 2 14 17 12 14 13 15 13 12 11 10 8 7 6 5 4 4 4 5 6 8 8 9 10 10 11 12 13 12 13 14 14
9 10 3 4 3 5 5 4 4 2 2 4 4 1 3 2 4 3 6 16 16 13 14 15 14 13 11 10 9 7 5 5 4 5 5 6 7 8 8 9 9 12 12 15 15 16 17 17 21
8 5 3 3 5 6 5 3 3 2 2 3 2 1 2 4 1 5 8 15 15 14 15 16 15 13 11 9 8 6 6 5 6 7 9 10 11 12 12 12 11 11 11 11 14 16 18 17 19
9 3 3 1 5 5 6 7 8 5 3 3 4 3 2 5 7 5 9 14 15 15 17 16 16 14 12 9 7 7 7 8 9 10 12 12 13 13 14 14 14 14 14 13 13 15 18 18 19
3 3 2 4 6 5 6 6 3 4 2 1 2 3 3 7 9 7 9 13 14 14 17 17 16 13 11 10 9 9 9 9 10 11 12 12 13 14 13 14 14 15 16 16 16 16 16 20 22
5 4 4 3 5 5 4 4 2 1 2 3 2 2 3 9 11 10 11 13 14 15 15 17 16 15 13 11 10 9 10 10 9 9 10 12 12 12 12 13 14 14 15 16 17 18 20 20 19
3 4 2 5 4 5 2 2 1 1 2 1 3 4 3 7 13 14 14 14 15 16 17 17 16 15 13 12 11 11 10 10 10 10 10 11 12 13 12 12 13 14 14 15 17 18 19 21 23
5 3 3 5 6 4 3 3 3 3 4 3 5 8 5 4 13 17 19 20 20 20 19 19 17 16 14 13 11 11 10 10 11 11 11 11 12 13 14 14 14 15 16 16 17 18 19 20 22
5 4 9 4 2 3 1 1 5 4 2 4 12 14 11 10 16 18 20 21 22 23 21 18 18 17 15 14 12 12 11 10 10 10 11 12 14 14 15 15 16 16 16 16 18 20 20 21 22
6 6 4 4 4 2 2 3 3 5 3 9 7 7 10 12 18 20 20 21 20 19 20 19 17 16 15 14 14 13 12 12 12 12 12 13 15 15 16 17 17 18 18 18 18 18 21 23 23
3 10 7 3 4 2 3 2 4 14 13 9 5 5 8 12 15 17 21 22 21 21 19 18 17 16 16 15 15 14 14 13 13 14 14 15 15 16 16 17 18 19 20 20 20 20 20 21 23
3 3 5 9 8 10 10 11 8 20 24 19 18 22 22 18 18 18 21 22 21 22 21 20 19 17 16 15 15 15 15 15 14 14 15 15 16 17 17 18 19 19 20 21 21 21 20 20 19
1 4 9 10 11 9 5 4 4 7 6 9 6 6 7 14 20 22 23 24 25 22 22 22 21 19 16 15 16 17 17 16 16 16 17 18 18 18 18 19 20 20 20 20 20 19 19 18 18
1 5 6 7 3 6 4 6 8 20 9 4 3 6 11 11 12 16 21 25 25 24 23 23 22 20 18 17 17 18 18 18 18 18 19 20 20 20 21 21 20 20 18 17 16 16 17 17 18
1 2 3 0 5 2 4 7 4 1 3 6 13 22 19 16 14 15 17 21 25 25 25 24 23 20 19 18 18 19 19 20 20 20 21 21 21 22 22 22 20 18 16 15 14 15 15 16 17
2 4 5 6 2 3 3 5 4 3 14 25 27 23 21 19 17 16 20 22 22 24 25 25 24 22 19 19 19 19 20 21 21 21 21 21 21 22 22 21 17 15 14 14 15 14 16 16 17
7 5 5 5 1 0 3 9 9 19 20 19 17 14 11 11 12 13 14 19 22 24 24 25 24 22 20 20 20 20 21 21 21 21 21 22 21 20 18 16 15 15 14 14 14 15 14 16 18
5 5 5 2 1 2 6 7 10 11 6 6 5 5 5 4 4 3 4 11 16 20 22 23 21 20 20 20 21 21 21 20 20 20 21 21 21 18 16 15 15 15 14 13 13 13 12 12 16
3 4 5 2 2 0 4 11 7 1 1 2 2 2 2 2 3 4 4 6 10 14 17 18 19 20 20 21 21 20 19 19 19 20 21 20 19 17 16 16 14 13 12 12 12 12 11 11 13
5 5 4 3 3 1 5 7 3 2 2 2 1 0 0 1 2 3 4 6 9 12 14 17 19 21 21 19 18 19 20 20 20 20 20 19 18 17 16 14 13 12 11 11 11 11 11 11 10
5 6 5 5 3 4 2 5 5 5 5 4 5 2 1 1 1 2 5 7 10 12 14 15 16 17 19 20 21 20 20 20 20 19 18 17 17 16 15 13 13 12 11 12 11 11 11 11 11
4 5 5 4 4 4 1 2 6 3 5 6 7 7 4 4 6 7 8 10 12 14 15 16 18 19 21 21 21 21 21 19 18 17 16 15 16 14 14 13 12 12 12 12 13 12 12 11 11
9 6 6 4 3 1 4 4 4 5 6 4 5 8 5 5 6 7 9 10 11 14 15 17 18 19 19 19 19 19 18 17 16 16 15 14 14 14 14 13 12 12 13 13 13 13 11 10 11
3 5 2 3 2 5 1 3 8 5 5 5 5 2 2 4 7 9 10 12 12 14 15 17 18 17 18 18 17 17 16 15 15 14 14 14 14 15 15 14 13 12 13 13 13 12 11 11 13
6 5 5 7 4 3 1 6 6 6 2 4 2 0 4 7 10 12 12 12 13 13 14 15 16 16 17 16 16 15 14 14 14 15 15 15 16 15 15 15 14 13 14 14 13 13 13 15 17
6 4 3 7 1 3 3 6 6 5 1 1 2 1 3 7 9 9 8 9 11 13 13 13 14 14 15 15 15 15 15 15 15 15 15 15 15 14 14 14 12 14 14 13 14 13 14 16 17
2 4 3 2 3 4 4 5 5 5 6 3 1 1 3 6 7 7 6 7 9 11 12 12 13 14 15 16 15 13 12 13 13 12 11 12 14 13 13 12 13 13 12 13 12 11 12 15 15
3 2 2 3 3 5 1 6 6 9 8 8 6 4 4 4 6 8 7 7 8 9 9 10 10 11 12 13 12 11 12 11 9 9 12 14 14 13 11 11 10 10 10 9 8 9 10 11 12
1 4 4 4 5 1 3 6 2 4 6 8 5 4 4 3 5 7 8 8 8 8 8 9 10 9 10 10 10 10 9 9 9 11 13 13 11 10 10 8 7 6 6 5 5 5 6 9 11
Wind_Direction
169 163 158 155 65 61 262 256 255 250 209 188 200 197 180 116 171 203 167 165 165 185 193 194 197 195 196 198 196 194 203 213 229 247 261 260 270 262 255 259 252 234 237 224 214 244 256 261 258
174 165 160 145 101 92 266 263 246 234 168 130 121 117 49 251 169 160 154 169 170 185 193 190 192 193 192 195 196 198 206 225 241 256 262 273 274 278 280 280 271 262 245 244 249 236 247 248 263
179 174 165 105 126 189 222 230 253 263 184 204 152 124 161 202 219 200 191 183 178 191 192 191 190 189 189 190 191 196 204 218 252 276 284 281 277 279 286 289 284 285 272 261 252 247 248 243 251
166 168 65 101 229 252 219 220 221 292 253 201 198 141 173 187 214 216 195 188 189 196 196 195 193 192 194 198 202 213 228 251 271 281 287 288 287 288 288 284 284 282 275 270 253 246 249 247 243
171 140 77 250 255 263 251 257 248 205 245 198 192 216 209 202 212 208 198 195 201 203 203 202 200 199 203 211 222 241 259 273 281 286 291 290 287 284 282 283 277 273 274 268 265 258 251 255 255
133 114 84 229 247 256 272 271 225 215 224 211 212 166 215 203 206 212 203 199 201 214 210 209 208 210 215 227 241 257 270 281 287 290 293 293 293 291 288 281 275 271 267 266 264 261 256 253 253
133 98 209 220 256 292 242 329 159 186 197 228 211 201 235 206 204 205 199 200 204 209 218 216 214 219 226 236 249 263 278 287 294 296 295 297 298 295 292 289 287 282 272 267 261 259 258 260 262
158 98 210 243 215 259 321 340 108 213 252 174 200 226 260 232 203 199 203 211 213 220 220 222 224 229 234 241 253 268 277 287 295 301 302 302 300 302 300 293 286 283 282 279 275 269 263 261 258
150 75 222 246 169 242 357 18 337 308 273 258 239 262 254 235 204 204 208 212 217 220 222 225 229 236 241 249 255 263 275 285 293 298 302 304 303 302 300 298 292 286 282 281 279 276 271 267 264
143 156 217 216 228 212 255 328 322 311 270 272 269 256 260 222 211 219 223 225 224 223 224 228 232 237 244 249 255 261 269 278 285 290 296 302 304 304 302 299 298 295 289 283 278 276 274 271 268
176 202 215 244 237 249 258 249 226 262 268 246 267 287 242 220 216 224 234 236 239 234 233 235 237 243 249 255 260 265 269 275 280 285 294 300 303 301 300 299 299 298 297 293 287 278 271 270 269
192 236 222 228 194 249 246 263 246 242 252 275 252 253 276 250 243 246 240 240 238 238 238 239 240 246 254 259 263 265 269 274 277 284 291 297 300 297 294 292 292 294 294 293 289 283 277 271 267
249 268 242 252 260 271 262 250 252 269 280 281 271 265 266 263 257 256 247 241 241 243 243 243 243 248 255 264 267 266 268 269 273 280 288 294 297 297 296 293 291 290 290 289 287 286 282 278 274
258 274 278 282 266 268 225 245 183 277 286 300 297 300 288 271 269 255 245 243 238 241 242 244 248 251 253 261 267 268 269 271 277 285 292 297 297 295 294 293 294 293 289 285 284 284 284 284 280
282 313 319 248 233 214 176 281 230 264 293 334 57 13 345 304 274 266 261 251 244 241 240 243 245 248 255 264 271 273 273 277 282 287 291 293 294 295 296 298 298 296 294 291 286 283 282 282 282
82 53 328 253 142 208 145 266 276 248 287 297 310 318 313 291 283 277 269 254 243 237 238 241 242 244 251 262 272 274 274 277 279 283 285 286 288 292 297 299 299 296 294 293 291 289 285 286 285
359 231 207 312 204 138 164 266 275 54 325 313 313 312 305 295 284 278 263 253 240 235 234 235 234 237 246 259 269 273 276 276 276 278 280 281 286 291 294 296 296 294 294 295 296 296 298 297 295
194 214 237 229 344 69 225 260 284 304 317 306 304 308 309 302 294 274 261 241 230 228 228 227 227 234 246 260 267 270 271 272 274 276 278 283 288 290 291 291 293 296 297 297 296 299 301 304 305
139 181 201 221 51 287 247 268 280 318 2 358 359 4 4 7 14 338 239 212 212 209 210 214 225 239 253 264 271 272 270 270 271 275 279 284 285 286 285 284 290 294 296 296 298 303 305 306 311
180 188 234 273 111 310 323 282 268 276 301 311 318 4 18 71 93 91 117 156 178 194 203 220 237 252 263 269 271 269 268 268 272 275 278 279 280 280 281 284 286 285 285 293 298 300 307 313 323
204 192 184 199 333 114 334 287 211 233 196 237 243 262 241 231 238 232 217 212 220 229 238 247 257 265 269 270 270 271 273 275 277 276 276 277 277 277 279 282 282 282 285 288 292 294 299 305 318
193 175 128 119 88 235 8 280 268 203 227 233 239 223 167 83 0 297 272 261 258 257 258 261 264 268 271 274 278 279 278 279 278 275 272 271 272 274 278 279 278 279 279 283 285 292 299 304 320
211 115 117 109 95 48 276 77 269 128 243 236 216 208 212 298 296 282 275 269 269 268 269 270 271 273 275 278 280 280 278 277 275 272 270 269 270 274 275 276 275 275 279 286 289 295 300 308 312
136 84 61 57 87 337 226 152 256 193 203 186 183 202 274 301 292 290 282 274 272 271 273 275 276 278 279 279 278 278 277 275 273 271 268 266 268 272 274 273 272 275 280 286 293 294 296 299 296
85 119 17 346 15 221 250 153 255 230 208 181 180 232 327 313 300 288 282 280 278 277 277 277 276 276 277 278 278 278 276 274 270 268 266 268 269 269 269 268 267 272 278 281 280 282 288 290 297
185 163 168 205 195 246 47 231 251 213 167 171 186 346 303 309 302 289 279 277 274 279 280 275 273 273 275 278 278 277 277 274 271 270 270 271 269 263 262 262 261 266 271 275 283 287 297 299 295
177 194 135 103 53 47 233 287 285 155 318 194 139 154 330 331 328 316 294 278 278 283 282 279 275 276 276 276 276 276 276 275 273 273 275 273 267 261 258 251 255 260 266 275 280 294 301 297 293
144 160 97 10 154 240 280 279 241 224 222 248 348 271 323 330 343 340 327 298 293 291 286 280 277 277 277 276 276 273 272 273 276 276 275 271 259 255 251 254 253 256 266 272 285 299 294 293 294
140 184 87 117 133 166 229 258 214 205 179 176 214 226 268 317 352 354 342 320 305 296 295 297 292 286 278 274 272 274 275 271 271 276 269 260 255 252 251 250 254 261 265 280 294 295 296 308 312
98 188 164 140 210 170 154 271 256 203 173 167 205 237 232 285 328 332 327 328 318 309 307 305 300 294 286 284 282 283 276 278 278 263 255 257 251 242 248 250 256 267 281 285 291 304 327 337 338